Temp_Advection
nan nan nan nan nan nan nan nan nan nan nan nan nan nan nan nan nan nan nan nan nan nan nan nan nan nan nan nan nan nan nan nan nan nan nan nan nan nan nan nan nan nan nan nan nan nan nan nan nan
nan 0 -0 0 -0 -0 0 0 -1 0 0 -0 -0 -1 -3 -1 -2 -1 -1 -1 -1 -0 -0 -0 -0 0 -0 -0 -0 -0 0 0 0 0 0 0 0 0 0 0 0 0 0 -0 0 0 0 0 nan
nan 0 -0 0 -0 0 0 -0 0 0 0 -0 -0 -5 -1 -1 -1 -1 -1 0 0 0 -0 -0 -0 0 0 0 0 -0 -0 0 0 0 0 0 0 0 0 0 0 0 -0 0 0 0 0 0 nan
nan -0 0 -0 -0 0 -0 0 0 0 0 -2 -2 -2 -1 -1 -0 -0 -1 -0 0 -0 -0 0 -0 -0 -0 -0 -0 0 -0 -0 -0 0 0 -0 0 0 0 0 0 0 0 0 0 0 -0 -0 nan
nan 0 -0 -0 0 -0 -0 0 -0 -1 -2 -2 -2 -1 -1 -0 0 -0 -1 -1 -0 -0 -0 -0 -0 -0 -0 -0 0 0 -0 0 -0 -0 -0 0 -0 0 0 0 0 0 0 0 0 -0 -0 -0 nan
nan 0 0 -0 0 -0 -0 -1 -3 -3 -3 -1 -1 -1 -1 0 -1 -1 -1 -1 -1 -1 -0 -0 -0 -0 -0 -0 -0 -0 -0 -0 0 0 -0 -0 0 0 0 0 0 0 -0 -0 0 -0 -0 0 nan
nan -0 -0 -0 0 -0 -0 -1 -3 -2 -3 -1 -1 -0 -0 -1 -2 -1 -0 -1 -1 -1 -1 -1 -0 -0 -0 -0 0 0 -0 -0 -0 0 0 -0 -0 -0 0 0 -0 -0 -0 0 0 -0 0 0 nan
nan -0 -0 -0 0 -0 -1 -1 -2 -2 -1 -0 -1 -1 -1 -2 -1 -0 -0 -0 -1 -1 -1 -1 -1 -1 -0 -0 -0 -0 0 -0 -0 -0 0 0 0 -0 -0 -0 -0 0 0 0 0 -0 0 0 nan
nan -0 -0 -1 -1 -1 -1 -0 -1 -1 -2 -2 -1 -1 -1 -0 -1 -1 -1 -1 -1 -2 -2 -1 -1 -1 -1 -1 -0 -0 -0 -0 -0 -0 -0 0 0 -0 -0 -0 0 0 0 0 0 0 0 0 nan
nan 0 -0 -1 -2 -0 -1 -1 -1 -0 -2 -1 -1 -1 -1 -1 -1 -1 -2 -3 -3 -3 -2 -2 -2 -1 -1 -1 -1 -0 -0 -0 -0 -0 -0 0 0 0 -0 -0 -0 0 0 0 0 0 1 0 nan
nan -0 -0 -1 -1 0 -1 -1 -1 -1 -1 -1 -0 -0 -1 -1 -1 -1 -1 -1 -2 -2 -2 -2 -2 -2 -2 -1 -1 -1 -1 -1 -0 -0 -0 -0 -0 0 0 -0 -0 0 0 0 0 0 0 -0 nan
nan -1 -1 -1 -0 -0 -1 -1 -1 -1 -0 -0 -0 -0 -0 -1 -1 -1 -1 -1 -1 -2 -2 -2 -2 -2 -2 -2 -1 -1 -1 -1 -1 -1 -1 -1 -1 -0 -0 -0 -0 -0 -0 0 0 0 0 0 nan
nan -0 -0 -0 -1 -1 -1 -1 -0 -0 -0 -0 -0 -0 -0 -0 -0 -0 -1 -1 -1 -1 -2 -3 -2 -2 -2 -2 -2 -1 -1 -1 -1 -0 -1 -1 -1 -1 -0 -0 -0 0 0 0 1 0 -0 -0 nan
nan -0 -0 -0 -0 -0 -0 -0 -0 -1 -0 -0 -0 -0 -0 -0 -0 -0 -1 -1 -1 -1 -1 -2 -2 -2 -2 -2 -2 -2 -2 -2 -1 -1 -1 -2 -1 -1 -1 -0 -0 -0 0 0 0 0 0 -0 nan
nan -0 -0 0 -0 -0 -0 -0 -1 -0 -0 -0 -0 -0 -0 -0 -0 -0 -0 -0 -1 -1 -1 -0 -1 -2 -2 -2 -2 -2 -1 -2 -2 -1 -0 -1 -1 -1 -1 -1 -1 -0 -0 0 0 0 0 0 nan
nan 0 0 -0 -0 -0 -0 -0 -0 -0 -0 -0 -0 -1 -1 -1 -0 -0 -0 -0 -0 -1 -1 -1 -0 -1 -1 -1 -1 -1 -1 -1 -2 -2 -1 -1 -1 -1 -1 -1 -1 -0 -0 1 0 0 0 -0 nan
nan 0 0 -0 0 -0 -0 -0 -1 -0 -0 -0 -1 -1 -1 -1 -1 -0 -0 -0 -0 -1 -1 -1 -1 -1 -1 -1 -1 -1 -1 -1 -1 -1 -2 -2 -1 -1 -1 -1 -1 -1 -1 -0 -0 0 0 0 nan
nan -0 -1 0 -0 -0 -0 0 -1 -0 -0 -1 -1 -1 -1 -1 -1 -1 -0 -0 -0 -0 -1 -1 -1 -2 -2 -1 -1 -2 -2 -1 -1 -1 -1 -2 -2 -2 -1 -1 -1 -1 -0 -0 -0 0 -0 0 nan
nan -0 -0 -0 -0 -0 -0 -0 -1 -1 -1 -1 -1 -1 -1 -1 -0 -0 -0 -0 -1 -1 -1 -1 -1 -1 -2 -3 -2 -2 -2 -3 -2 -1 -1 -1 -1 -2 -2 -2 -1 -1 -1 -0 -0 -1 0 1 nan
nan 0 -0 -0 -0 0 0 -0 -0 -1 -1 -1 -1 -1 -1 -1 -1 -1 -1 -1 -0 -1 -1 -1 -1 -1 -1 -2 -3 -2 -1 -1 -2 -2 -1 -1 -1 -1 -2 -2 -2 -1 -1 0 -0 0 0 -0 nan
nan -0 -0 -0 -1 -0 0 -0 1 -1 -1 -1 -1 -1 -0 -0 -1 -1 -1 -1 -1 -1 -1 -1 -1 -1 -1 -0 -1 -2 -3 -1 -1 -3 -2 -1 -1 -1 -1 -2 -1 -2 -1 -1 0 0 0 -0 nan
nan -0 -0 0 -0 -0 -0 0 -0 -0 -0 -1 -0 -0 -0 -0 -0 -0 -1 -1 -0 -0 -0 -0 -1 -1 -1 -1 -0 -1 -2 -4 -2 -2 -3 -2 -1 -1 -1 -2 -2 -1 -1 -2 -1 -0 -1 -0 nan
nan -0 0 0 0 -0 0 0 -0 0 -0 -0 0 -0 -0 -0 -0 -0 -0 -0 -0 -0 0 0 0 -0 -1 -1 -1 -0 0 -1 -3 -2 -2 -3 -2 -1 -0 -1 -2 -2 -1 -2 -1 -2 -1 0 nan
nan -0 -0 0 0 -0 0 0 0 -0 0 0 0 -0 -0 0 0 0 0 0 -0 0 0 0 0 1 0 -0 -1 -1 -1 0 -0 -2 -2 -2 -3 -2 -0 -1 -1 -2 -2 -2 -2 -2 -1 0 nan
nan -0 -0 -0 -0 -0 -0 0 1 0 -0 0 0 0 -0 -0 0 0 0 0 0 0 0 0 0 0 0 0 -0 -0 -1 -1 0 0 -2 -2 -2 -3 -2 -1 -1 -2 -2 -2 -2 -2 -1 -2 nan
nan 0 -0 0 -0 -0 0 1 0 -0 0 -0 0 0 0 0 0 0 0 0 0 0 0 0 0 0 0 0 0 0 -0 -1 -1 0 0 -2 -2 -2 -2 -1 -2 -1 -2 -2 -2 -2 -2 -1 nan
nan 0 -0 0 0 -0 0 -0 -0 -0 0 0 -0 0 0 0 0 0 0 0 0 -0 -0 -0 -0 0 0 0 0 0 0 -0 -1 -1 -0 0 -1 -2 -1 -1 -2 -1 -1 -1 -2 -3 -3 -1 nan
nan -0 -0 -0 -0 -0 -0 0 0 0 0 -0 -1 -0 0 0 0 0 0 0 -0 -0 -0 -0 -0 -0 -0 0 0 0 0 0 -0 -0 -1 -0 0 -1 -2 -1 -1 -2 -1 -1 -1 -3 -2 -2 nan
nan 0 -0 0 -0 0 0 0 0 0 -0 -0 -1 0 -0 -0 -0 -0 -0 -0 -0 -0 -0 -0 -0 -0 -0 -0 -0 -0 -0 0 0 -0 -0 -1 -0 -0 -1 -1 -1 -2 -2 -1 -1 -2 -3 -3 nan
nan nan nan nan nan nan nan nan nan nan nan nan nan nan nan nan nan nan nan nan nan nan nan nan nan nan nan nan nan nan nan nan nan nan nan nan nan nan nan nan nan nan nan nan nan nan nan nan nan
Wind_Speed
6 10 4 2 1 2 4 4 3 6 5 9 9 6 21 23 4 6 12 26 23 16 7 4 3 7 4 3 3 4 6 6 6 6 6 6 6 8 8 8 7 7 5 4 6 7 8 8 10
5 6 4 5 1 3 2 4 8 8 10 3 1 7 21 7 25 8 19 28 23 20 5 3 2 2 2 5 5 5 6 7 7 7 8 7 8 8 9 8 9 10 7 5 6 9 8 10 10
8 4 5 2 4 3 3 9 9 4 4 4 3 19 8 14 18 15 24 21 19 16 13 8 4 3 4 5 4 6 8 8 8 8 9 9 9 10 10 10 11 10 9 8 7 10 12 12 11
4 3 6 1 8 6 9 8 4 1 8 13 12 13 14 17 9 19 19 16 17 14 11 11 9 6 7 7 6 7 7 10 10 11 11 11 11 12 12 11 12 10 11 10 10 11 12 12 12
5 5 3 5 0 7 9 7 4 5 10 20 20 10 12 14 16 14 19 18 17 13 11 8 9 9 8 9 11 8 9 9 11 14 14 14 14 14 14 14 13 12 12 12 13 13 12 12 12
3 3 3 4 6 8 9 15 20 21 20 14 11 8 10 16 22 22 18 18 16 16 13 9 5 8 10 11 8 13 13 12 12 12 15 16 17 16 17 16 16 14 14 15 16 14 14 14 13
2 2 5 6 2 6 7 6 18 16 23 11 11 5 5 25 27 22 18 17 17 16 15 14 11 6 5 10 12 10 14 16 15 16 16 17 19 18 18 18 18 17 16 16 17 16 16 15 14
4 1 5 4 3 5 7 9 18 15 17 4 11 9 9 27 24 21 18 19 17 17 18 17 15 13 10 6 11 13 13 12 19 19 19 19 19 20 20 20 19 18 18 18 19 19 19 17 16
3 2 4 7 6 7 14 4 14 14 21 27 14 17 14 18 21 22 23 21 23 22 22 21 19 17 15 12 9 8 11 11 14 19 21 21 21 21 21 22 20 20 19 20 21 22 22 20 18
2 2 4 9 12 9 15 11 8 4 18 14 15 16 18 20 24 26 30 31 29 29 28 27 24 22 21 18 14 11 10 11 10 13 19 24 23 24 23 25 23 23 23 23 23 25 26 24 21
1 3 5 13 14 9 11 20 13 7 10 14 14 16 19 21 24 26 26 28 30 30 28 29 27 24 23 22 21 18 14 13 13 10 15 18 26 25 26 27 25 27 27 26 27 28 30 28 25
1 10 14 9 11 4 7 9 14 21 8 8 10 12 16 21 24 26 27 27 29 30 30 30 29 28 26 25 23 22 20 17 16 16 13 15 20 25 25 29 30 33 32 30 30 30 32 30 25
4 7 10 11 14 18 18 17 9 11 8 8 9 13 16 19 22 23 24 25 27 30 31 32 31 30 29 28 26 24 22 21 19 17 18 15 14 18 22 25 31 38 36 32 31 31 31 29 24
8 12 10 9 12 5 5 6 2 9 7 9 11 14 15 18 20 23 27 29 30 29 31 31 30 30 30 29 28 27 25 22 21 19 17 21 17 17 22 21 24 23 32 31 32 31 32 31 27
8 5 6 3 1 4 5 6 8 8 7 9 11 13 15 18 20 23 24 27 28 28 29 30 31 31 30 30 28 27 26 25 22 21 19 22 20 19 20 24 25 14 30 35 30 32 30 27 30
3 6 5 3 3 3 5 4 8 5 5 8 10 14 16 19 21 22 23 25 28 28 30 29 30 31 31 29 29 28 27 25 24 22 22 23 23 21 21 21 18 7 26 33 30 34 34 32 32
4 4 3 5 4 4 1 1 8 5 4 9 12 14 16 18 21 23 24 23 26 28 30 31 31 30 32 31 29 29 27 27 24 23 22 23 23 23 23 23 20 15 27 23 42 43 36 39 37
5 5 7 7 4 5 6 8 9 7 8 12 14 15 17 18 21 21 22 24 24 25 30 30 31 32 31 31 33 30 28 28 28 25 23 22 23 23 23 23 22 14 19 22 35 52 52 54 39
5 6 8 7 10 3 5 4 8 10 11 13 14 14 16 18 18 20 22 24 26 27 29 32 32 32 33 32 32 34 33 32 30 29 25 24 23 23 23 23 21 20 9 15 10 44 29 38 45
6 7 7 3 3 8 7 9 3 13 13 13 13 14 18 24 29 31 30 29 28 28 30 32 33 32 31 29 31 29 31 31 30 31 28 25 23 21 22 22 21 21 19 15 18 22 44 25 40
6 5 5 7 13 11 13 13 16 13 15 12 12 12 16 21 26 30 30 33 32 31 32 30 32 33 30 29 30 31 29 29 32 32 32 29 26 22 21 21 22 22 23 16 17 19 22 35 33
3 7 8 11 8 4 5 5 6 12 9 12 10 13 17 25 30 29 33 35 33 32 31 29 31 30 30 29 30 29 29 32 32 34 33 32 27 24 22 21 21 22 24 22 22 13 26 29 43
5 11 13 10 9 8 8 4 2 13 8 3 7 12 18 20 28 29 32 34 33 33 32 32 31 28 32 31 28 29 30 30 31 32 33 33 30 26 22 21 21 23 24 25 24 23 23 14 34
8 10 19 11 4 3 4 2 2 1 3 2 5 11 17 26 25 28 29 33 34 33 32 33 33 35 34 35 31 28 29 32 33 31 32 33 33 29 25 22 22 22 25 26 25 28 22 27 35
7 9 3 3 0 4 6 5 4 4 3 5 3 13 20 25 25 30 32 33 33 33 33 33 34 35 36 37 35 33 30 29 31 31 31 32 34 33 28 25 23 24 25 27 27 28 26 25 25
6 3 2 4 3 6 10 4 4 3 8 2 6 18 21 24 27 31 32 32 32 34 34 34 34 35 36 36 37 35 33 31 30 30 33 32 32 33 31 28 26 24 25 27 28 28 28 28 29
4 1 3 3 8 3 4 2 3 5 6 4 13 17 21 26 28 29 31 30 32 33 34 34 35 35 35 36 36 37 36 33 33 34 32 33 31 31 31 29 29 25 24 25 28 28 30 29 32
3 1 1 2 3 5 5 5 3 1 3 4 13 16 24 28 30 31 29 31 31 33 34 35 34 35 35 34 35 37 37 36 37 36 35 32 31 29 29 29 28 28 26 25 25 28 27 30 32
2 2 2 2 2 3 5 4 5 6 4 6 14 17 26 28 30 30 31 29 33 34 34 35 35 35 34 35 35 37 38 38 38 37 35 32 31 29 29 29 29 29 28 25 24 25 27 28 34
3 3 3 1 6 6 7 10 3 5 6 7 12 23 27 29 30 31 29 33 34 35 35 36 36 35 35 36 37 38 37 39 39 37 35 32 31 30 30 29 28 29 28 26 26 26 25 27 30
Wind_Direction
50 10 8 330 336 189 266 54 33 106 117 37 18 36 102 60 358 95 333 12 15 27 21 27 348 315 297 298 271 246 224 220 216 212 211 197 202 204 209 214 219 208 204 209 224 205 201 202 199
32 36 313 285 206 238 34 100 56 46 56 11 313 44 44 76 29 3 17 3 16 21 22 353 352 235 261 289 285 263 237 232 233 231 223 217 219 219 220 223 225 214 230 235 221 189 192 196 203
20 355 289 224 237 39 94 56 48 356 102 34 27 65 47 351 16 1 344 358 12 19 20 2 334 264 241 227 239 279 262 246 242 242 238 238 239 234 233 237 231 227 241 240 221 197 198 208 209
15 249 255 269 276 41 45 64 19 153 129 41 72 80 89 48 18 357 341 357 1 9 5 349 359 323 289 275 256 235 256 263 249 246 245 249 249 246 248 241 230 236 238 227 216 212 201 201 200
326 277 274 225 108 84 55 36 341 7 62 19 24 70 79 10 5 9 351 359 355 355 0 337 337 321 343 291 280 271 258 249 259 255 251 251 249 248 247 245 240 243 239 223 212 216 211 199 196
275 216 284 272 91 101 73 15 51 42 35 13 32 56 78 7 1 10 358 353 356 354 355 353 323 299 305 307 305 278 277 267 256 253 256 255 253 250 247 243 243 245 236 220 214 216 206 195 191
243 305 255 311 107 136 69 56 39 71 30 15 3 73 132 4 359 3 358 348 349 352 349 351 348 345 291 278 297 308 276 271 269 262 257 258 259 256 250 243 241 238 230 217 217 214 205 197 190
319 309 282 258 294 86 31 65 61 56 38 62 36 27 6 358 352 354 358 357 354 351 350 350 348 341 338 324 262 276 281 291 270 266 261 258 260 257 250 245 238 230 225 216 215 211 204 205 202
325 305 268 350 29 88 31 67 74 93 82 60 67 49 14 3 354 1 3 3 5 4 0 356 348 342 338 333 316 283 276 282 283 274 266 262 258 259 248 240 234 227 225 217 214 212 208 210 205
277 286 47 30 28 74 55 58 11 109 58 45 33 23 15 11 7 8 9 4 3 1 1 1 356 352 344 340 327 320 308 296 294 279 272 268 260 256 248 246 238 233 230 226 221 217 214 213 214
75 4 106 41 21 356 116 73 37 55 53 37 27 16 14 11 12 9 11 6 2 356 353 356 355 353 349 345 340 330 319 312 301 289 277 274 266 264 244 244 242 239 232 227 223 221 218 211 218
203 41 29 49 31 30 63 95 78 62 77 49 35 24 19 16 15 9 8 4 1 356 354 351 350 348 348 346 344 339 331 319 312 314 305 281 270 270 272 234 241 239 233 225 220 218 223 212 216
304 103 75 86 72 66 80 73 97 72 69 53 42 30 23 21 16 8 4 2 1 359 355 352 349 345 344 342 339 338 335 330 323 314 315 306 289 273 273 268 239 239 235 226 220 213 213 212 213
27 101 102 87 81 75 121 106 136 47 35 35 32 29 23 21 14 5 2 1 359 359 356 354 352 349 345 341 338 336 334 329 327 319 320 304 297 283 266 272 274 271 217 230 225 216 215 217 209
137 125 133 103 32 70 123 135 69 37 25 27 23 20 19 18 15 10 3 358 356 356 353 355 353 351 349 346 343 338 334 331 324 320 313 303 300 291 279 272 274 262 225 220 219 220 221 224 210
228 215 225 78 356 158 117 121 92 55 34 40 31 28 23 17 13 7 4 357 351 352 352 351 351 350 349 349 347 343 338 333 330 318 312 309 303 298 288 288 284 275 254 226 226 239 206 217 217
172 270 269 142 90 18 12 40 122 86 60 50 41 35 25 15 10 3 356 355 350 346 345 347 348 348 345 346 345 344 340 337 333 327 319 306 311 301 296 290 292 281 264 241 226 221 214 210 205
339 341 349 338 142 61 309 270 126 98 72 61 48 35 24 14 7 359 355 349 349 344 340 344 344 343 342 341 339 340 339 338 337 333 323 319 309 307 300 294 289 299 247 257 250 238 234 223 197
313 316 289 297 24 21 277 326 164 114 80 67 54 35 19 9 357 356 355 350 346 346 340 341 340 342 340 339 338 336 337 335 334 334 333 327 318 310 307 299 288 282 268 233 244 228 255 213 205
266 279 297 340 48 319 266 258 137 122 104 88 60 33 13 359 356 354 353 349 346 343 340 340 336 337 337 336 330 331 328 330 328 329 330 332 326 320 310 305 298 280 286 223 233 230 249 244 214
343 339 5 298 324 271 274 265 232 125 122 87 53 26 9 357 348 345 344 344 341 340 336 336 332 333 334 328 328 328 323 321 325 327 326 330 331 327 320 306 300 289 272 271 228 218 226 237 224
296 13 321 309 320 287 52 286 87 147 136 80 42 17 353 348 348 346 341 340 338 334 336 332 333 333 331 329 328 326 326 322 322 322 323 322 326 326 323 315 299 293 286 273 269 234 228 241 239
276 331 287 271 268 293 256 241 336 137 129 97 49 6 346 342 342 339 335 334 333 336 336 336 333 331 335 333 327 322 320 317 317 317 319 319 319 322 323 319 307 295 288 284 264 274 225 206 234
284 293 286 243 233 270 21 186 301 116 152 155 22 354 347 337 340 334 334 334 333 336 335 334 333 331 333 334 333 324 318 317 317 318 315 317 317 318 320 315 311 301 294 288 276 272 242 224 226
353 327 342 348 255 237 76 323 228 191 112 115 20 345 336 339 337 338 336 333 332 331 330 331 330 329 329 329 331 330 323 317 314 313 314 313 313 314 314 314 311 306 299 293 286 271 263 261 239
295 334 111 266 306 286 307 245 284 138 147 193 329 335 332 336 338 336 335 332 330 329 328 328 327 326 325 325 326 327 326 323 316 311 310 309 307 307 309 309 305 304 303 296 290 283 267 262 266
345 55 67 273 240 253 227 78 320 178 218 211 327 327 332 338 338 334 332 332 329 328 328 327 326 324 323 323 323 323 324 322 320 317 310 308 306 303 304 302 302 302 299 297 293 287 275 264 270
295 9 166 187 294 299 306 311 244 230 236 300 302 313 339 340 337 334 331 330 330 328 327 326 324 322 321 320 319 318 318 317 317 317 314 308 305 304 302 300 300 299 297 294 294 289 281 269 261
203 247 248 284 168 231 300 265 202 196 207 249 295 333 340 337 335 333 330 331 330 328 326 324 323 321 319 319 317 315 313 313 313 313 314 312 306 305 303 300 299 297 297 294 293 291 287 279 261
356 302 317 220 293 319 306 296 167 173 212 273 331 342 340 336 333 331 332 333 330 328 326 324 322 321 319 317 314 312 311 312 311 311 312 312 307 304 303 299 296 295 294 293 289 290 286 279 268
Height
1507 1509 1510 1511 1519 1512 1507 1505 1494 1500 1503 1504 1503 1504 1517 1524 1526 1532 1532 1527 1523 1521 1519 1517 1518 1522 1522 1522 1522 1522 1523 1523 1525 1527 1527 1527 1529 1531 1532 1533 1534 1535 1536 1537 1538 1538 1539 1540 1540
1508 1509 1511 1509 1518 1516 1510 1496 1503 1503 1504 1505 1504 1505 1510 1527 1530 1531 1526 1526 1524 1523 1520 1518 1517 1517 1518 1521 1522 1522 1523 1524 1525 1526 1527 1527 1528 1530 1531 1532 1533 1534 1535 1536 1538 1539 1539 1539 1540
1509 1511 1512 1509 1508 1514 1513 1503 1505 1505 1506 1506 1507 1513 1524 1537 1537 1537 1534 1530 1527 1523 1520 1520 1518 1519 1519 1518 1518 1522 1523 1524 1525 1526 1527 1527 1529 1529 1530 1531 1532 1532 1533 1534 1536 1538 1539 1539 1540
1511 1513 1512 1515 1508 1504 1506 1507 1508 1505 1507 1508 1511 1523 1536 1545 1544 1543 1535 1529 1526 1523 1522 1521 1520 1519 1519 1519 1519 1518 1520 1523 1524 1524 1526 1526 1527 1529 1528 1530 1531 1532 1533 1533 1535 1536 1537 1538 1539
1513 1512 1514 1509 1501 1504 1507 1510 1509 1507 1511 1516 1513 1531 1538 1543 1543 1539 1533 1529 1525 1523 1522 1522 1522 1521 1520 1520 1519 1518 1518 1518 1520 1523 1524 1524 1525 1526 1527 1528 1530 1531 1531 1533 1534 1534 1536 1537 1538
1512 1511 1516 1511 1505 1505 1510 1512 1511 1516 1519 1520 1523 1529 1546 1547 1539 1536 1534 1529 1527 1524 1522 1522 1521 1520 1519 1518 1519 1519 1519 1519 1519 1519 1522 1523 1523 1523 1525 1525 1526 1528 1529 1531 1532 1533 1534 1536 1537
1511 1511 1512 1505 1502 1506 1512 1514 1519 1524 1528 1528 1530 1531 1543 1539 1540 1537 1533 1530 1527 1524 1522 1521 1519 1518 1517 1517 1517 1517 1517 1518 1518 1519 1519 1520 1521 1522 1522 1523 1524 1525 1526 1528 1530 1531 1533 1534 1536
1513 1512 1508 1501 1505 1510 1516 1517 1525 1527 1538 1535 1533 1542 1544 1544 1540 1536 1533 1529 1527 1524 1522 1520 1518 1517 1516 1514 1514 1514 1515 1516 1516 1516 1516 1516 1517 1519 1520 1521 1521 1522 1523 1525 1527 1529 1530 1532 1534
1514 1517 1515 1510 1507 1521 1521 1522 1528 1535 1536 1538 1545 1548 1550 1546 1540 1535 1531 1528 1525 1523 1521 1519 1517 1515 1514 1513 1512 1511 1512 1512 1512 1513 1513 1513 1514 1515 1517 1518 1519 1520 1520 1522 1524 1526 1528 1530 1531
1515 1516 1517 1519 1520 1525 1529 1529 1532 1535 1539 1544 1547 1548 1547 1543 1539 1534 1530 1526 1524 1522 1520 1518 1516 1514 1513 1512 1510 1509 1508 1507 1508 1508 1509 1510 1510 1511 1513 1515 1515 1516 1518 1519 1520 1522 1525 1526 1528
1515 1518 1518 1524 1527 1525 1528 1533 1537 1536 1544 1549 1549 1547 1545 1543 1539 1536 1533 1531 1528 1526 1523 1520 1517 1514 1512 1511 1509 1508 1506 1504 1503 1505 1505 1505 1506 1507 1508 1510 1511 1511 1512 1514 1515 1518 1519 1522 1524
1519 1524 1525 1530 1528 1525 1527 1532 1541 1543 1550 1550 1550 1549 1546 1544 1542 1539 1536 1533 1530 1526 1523 1521 1518 1515 1513 1510 1508 1506 1505 1503 1502 1501 1500 1500 1500 1501 1501 1503 1505 1506 1506 1507 1509 1511 1514 1517 1520
1520 1527 1529 1532 1532 1533 1535 1540 1543 1547 1548 1549 1550 1549 1548 1546 1545 1543 1540 1536 1532 1528 1524 1521 1518 1516 1512 1510 1507 1505 1503 1502 1501 1499 1497 1496 1495 1496 1496 1495 1498 1500 1500 1504 1505 1506 1509 1513 1516
1526 1528 1532 1536 1538 1537 1537 1542 1543 1553 1554 1553 1553 1552 1551 1549 1547 1543 1540 1537 1533 1529 1525 1522 1518 1515 1513 1509 1506 1503 1501 1500 1498 1496 1494 1491 1492 1490 1490 1490 1488 1485 1480 1498 1500 1501 1505 1509 1512
1529 1532 1534 1534 1533 1537 1539 1543 1553 1555 1555 1556 1556 1556 1555 1553 1550 1547 1544 1540 1536 1532 1528 1522 1519 1515 1512 1508 1505 1502 1499 1496 1495 1493 1491 1488 1488 1486 1485 1486 1485 1481 1487 1492 1490 1498 1502 1506 1509
1526 1527 1527 1535 1534 1537 1538 1541 1551 1552 1552 1554 1555 1556 1556 1556 1554 1551 1547 1542 1539 1533 1528 1525 1519 1514 1511 1508 1504 1501 1497 1494 1492 1490 1487 1485 1483 1482 1481 1480 1482 1481 1478 1479 1478 1490 1491 1498 1504
1522 1527 1521 1537 1537 1539 1539 1541 1548 1550 1550 1552 1554 1554 1555 1554 1553 1550 1548 1543 1539 1535 1529 1524 1519 1515 1511 1506 1503 1499 1496 1492 1489 1486 1484 1481 1480 1478 1476 1475 1475 1476 1476 1476 1480 1482 1483 1489 1494
1548 1540 1533 1534 1539 1539 1541 1539 1544 1547 1549 1552 1554 1555 1556 1555 1553 1551 1549 1543 1538 1536 1530 1524 1520 1515 1510 1504 1500 1497 1494 1490 1487 1484 1480 1478 1475 1474 1472 1470 1469 1468 1467 1467 1472 1475 1471 1478 1475
1546 1546 1543 1535 1537 1540 1537 1537 1539 1545 1548 1552 1555 1557 1557 1555 1554 1551 1547 1541 1537 1534 1528 1522 1519 1513 1508 1502 1497 1493 1489 1486 1483 1480 1478 1475 1472 1470 1468 1466 1465 1464 1462 1463 1466 1467 1456 1467 1473
1545 1542 1541 1537 1538 1541 1537 1536 1533 1542 1549 1553 1555 1556 1555 1552 1549 1546 1543 1539 1536 1532 1527 1522 1517 1513 1508 1503 1498 1495 1489 1485 1481 1477 1474 1472 1469 1466 1464 1463 1461 1459 1458 1458 1461 1466 1468 1459 1465
1546 1546 1552 1554 1545 1539 1534 1529 1527 1543 1549 1553 1556 1557 1556 1554 1549 1544 1540 1537 1532 1528 1524 1520 1516 1511 1506 1501 1496 1490 1487 1482 1477 1473 1470 1467 1465 1463 1461 1459 1458 1456 1454 1452 1456 1461 1463 1465 1467
1554 1554 1553 1553 1555 1552 1538 1551 1530 1542 1548 1554 1557 1557 1556 1552 1549 1545 1539 1534 1531 1526 1522 1518 1513 1508 1504 1499 1493 1489 1484 1479 1475 1469 1466 1463 1461 1459 1457 1454 1453 1451 1449 1447 1448 1449 1454 1457 1461
1553 1551 1550 1550 1551 1551 1539 1549 1542 1538 1549 1559 1558 1557 1555 1552 1548 1542 1538 1533 1528 1523 1519 1514 1510 1505 1501 1496 1491 1486 1481 1478 1472 1467 1462 1458 1456 1455 1453 1450 1447 1446 1444 1443 1441 1439 1442 1445 1451
1554 1550 1538 1539 1545 1562 1532 1536 1555 1550 1556 1557 1556 1556 1554 1550 1546 1541 1536 1530 1525 1520 1516 1511 1506 1502 1498 1494 1489 1485 1479 1472 1467 1464 1459 1454 1450 1449 1448 1446 1443 1441 1439 1437 1437 1436 1436 1440 1445
1554 1553 1547 1557 1567 1539 1532 1541 1558 1555 1554 1555 1556 1555 1552 1547 1543 1538 1533 1527 1521 1516 1512 1508 1503 1498 1494 1489 1485 1481 1476 1471 1465 1460 1456 1451 1446 1443 1442 1440 1438 1436 1434 1433 1432 1430 1428 1431 1432
1561 1557 1570 1590 1566 1559 1543 1567 1559 1554 1554 1554 1554 1552 1549 1544 1540 1535 1530 1525 1519 1514 1509 1504 1499 1494 1489 1485 1480 1476 1472 1467 1462 1457 1452 1448 1444 1439 1437 1435 1433 1431 1429 1427 1426 1425 1425 1427 1428
1560 1559 1561 1573 1559 1566 1539 1553 1556 1552 1552 1552 1551 1548 1544 1540 1536 1532 1527 1522 1517 1511 1506 1500 1494 1489 1485 1480 1474 1470 1466 1462 1457 1452 1448 1442 1439 1435 1431 1429 1427 1425 1424 1423 1421 1419 1417 1414 1420
1565 1564 1570 1569 1582 1561 1560 1552 1563 1558 1554 1550 1548 1544 1541 1537 1533 1529 1524 1519 1514 1509 1503 1497 1491 1485 1480 1475 1470 1464 1460 1455 1451 1447 1442 1438 1433 1430 1426 1423 1421 1419 1418 1417 1416 1414 1413 1413 1410
1567 1567 1564 1564 1570 1592 1567 1575 1554 1555 1552 1550 1545 1543 1538 1535 1530 1526 1521 1516 1511 1505 1499 1493 1487 1481 1476 1470 1465 1459 1454 1449 1445 1441 1437 1433 1428 1425 1421 1417 1414 1412 1411 1411 1411 1409 1406 1404 1404
1567 1567 1568 1577 1579 1565 1569 1555 1545 1547 1548 1546 1543 1540 1536 1533 1528 1523 1518 1512 1507 1501 1495 1489 1483 1477 1471 1465 1459 1454 1448 1443 1438 1433 1430 1427 1423 1419 1416 1412 1408 1406 1404 1404 1404 1403 1402 1400 1399